Moses Lake, WA
on Tuesday, January 15, 2013

Tuesday
Previous Day Next Day
Daily Summary
 ActualAverageRecord
Temperature
Mean Temperature °F 30°F  
Max Temperature 32°F 36°F 49°F (2014)
Min Temperature 16°F 24°F 1°F (1997)
Degree Days
Heating Degree Days 41 35  
Month to date heating degree days 562 544  
Since 1 July heating degree days 2770 3131  
Cooling Degree Days 0 0  
Month to date cooling degree days 0 0  
Year to date cooling degree days 0 0  
Moisture
Dew Point 17°F   
Average Humidity 78    
Maximum Humidity 92    
Minimum Humidity 63    
Precipitation
Precipitation 0.00 in 0.04 in 0.26 in (2011)
Month to date precipitation 0.27 0.72  
Year to date precipitation 0.27 0.72  
Wind
Wind Speed 5 mph   
Max Wind Speed 10 mph   
Max Gust Speed 13 mph   
Visibility 7 miles   
Events Fog   

Key: T is trace of precipitation, MM is missing value
Source: NWS Daily Summary
Time(PST)TemperatureDew PointHumidity Pressure Visibility Wind DirectionWind SpeedGust SpeedPrecipitationEvents Conditions
12:52 AM 19.9°F 16.0°F 85% 30.54 in 8.0 miles North 4.6 mph - N/A   Clear
1:52 AM 19.0°F 15.1°F 85% 30.56 in 9.0 miles North 6.9 mph - N/A   Clear
2:52 AM 19.4°F 15.8°F 86% 30.51 in 8.0 miles North 5.8 mph - N/A   Clear
3:52 AM 18.0°F 15.1°F 88% 30.57 in 8.0 miles North 4.6 mph - N/A   Clear
4:52 AM 18.0°F 15.1°F 88% 30.58 in 9.0 miles Calm Calm - N/A   Clear
5:52 AM 17.1°F 14.0°F 88% 30.59 in 9.0 miles NNE 4.6 mph - N/A   Clear
6:52 AM 18.0°F 14.0°F 84% 30.61 in 9.0 miles North 3.5 mph - N/A   Clear
7:52 AM 17.1°F 12.9°F 84% 30.63 in 7.0 miles North 4.6 mph - N/A   Clear
8:52 AM 19.0°F 15.1°F 85% 30.65 in 8.0 miles NNE 3.5 mph - N/A   Clear
9:52 AM 21.9°F 16.0°F 78% 30.66 in 10.0 miles NNE 3.5 mph - N/A   Clear
10:52 AM 25.0°F 18.0°F 75% 30.66 in 10.0 miles NNE 3.5 mph - N/A   Clear
11:52 AM 28.0°F 19.9°F 72% 30.65 in 10.0 miles NNE 3.5 mph - N/A   Clear
12:52 PM 28.9°F 21.0°F 72% 30.65 in 10.0 miles Calm Calm - N/A   Clear
1:52 PM 32.0°F 21.0°F 64% 30.64 in 10.0 miles Calm Calm - N/A   Clear
2:52 PM 32.0°F 21.0°F 64% 30.63 in 10.0 miles Calm Calm - N/A   Clear
3:52 PM 32.0°F 21.0°F 64% 30.65 in 10.0 miles North 3.5 mph - N/A   Clear
4:52 PM 27.0°F 21.0°F 78% 30.65 in 10.0 miles NNW 9.2 mph - N/A   Clear
5:52 PM 24.1°F 19.9°F 84% 30.65 in 9.0 miles NW 8.1 mph - N/A   Clear
6:52 PM 23.0°F 19.0°F 85% 30.65 in 9.0 miles NNW 8.1 mph - N/A   Clear
7:52 PM 21.9°F 18.0°F 85% 30.65 in 8.0 miles NNW 8.1 mph - N/A   Clear
8:52 PM 19.9°F 17.1°F 89% 30.64 in 7.0 miles NNW 6.9 mph - N/A   Clear
9:52 PM 19.0°F 16.0°F 88% 30.63 in 7.0 miles North 6.9 mph - N/A   Clear
10:52 PM 18.0°F 14.0°F 84% 30.63 in 7.0 miles North 8.1 mph - N/A   Clear
11:04 PM 17.6°F 15.8°F 93% 30.57 in 2.5 miles NNW 10.4 mph - N/A   Partly Cloudy
11:10 PM 17.6°F 15.8°F 93% 30.56 in 1.2 miles North 8.1 mph - N/A   Mostly Cloudy
11:33 PM 19.4°F 17.6°F 93% 30.56 in 0.5 miles North 5.8 mph - N/A Fog Light Freezing Fog
11:44 PM 19.4°F 17.6°F 93% 30.56 in 0.2 miles North 5.8 mph - N/A Fog Light Freezing Fog
11:52 PM 21.0°F 19.0°F 92% 30.61 in 0.2 miles North 5.8 mph - N/A Fog Light Freezing Fog
11:59 PM 21.2°F 19.4°F 93% 30.55 in 0.5 miles Calm Calm - N/A Fog Light Freezing Fog
Moon Phase
Jan. 15 Jan. 18 Jan. 26 Feb. 03 Feb. 10
Sunrise:07:39 AM (PST) Moon Rise:09:26 AM (PST)1/15
Sunset:04:35 PM (PST) Moon Set:09:53 PM (PST)1/15

Copyright © 2014 The Weather Underground, Inc.